Location: Unspecified
(37.3333°N, 0.0000°E)
Time: 00:27:05
(UTC+00:00)

Tiangong 2 - Pass Details

Date: 29 May 2019
Orbit: 376 x 389 km, 42.8° (Epoch: 20 June)

Event Time Altitude Azimuth Distance (km) Brightness Sun altitude
Rises 19:58:19 0° 294° (WNW) 2,241 7.0 -8.5°
Reaches altitude 10° 20:00:27 10° 302° (WNW) 1,386 5.6 -8.9°
Maximum altitude 20:03:27 42° 15° (NNE) 546 2.0 -9.3°
Drops below altitude 10° 20:06:26 10° 89° (E) 1,379 3.4 -9.8°
Enters shadow 20:06:29 10° 89° (E) 1,397 3.4 -9.8°
